When you browse on this site, cookies collect data to enhance your experience and personalize the content and advertising you see.
Visit our Privacy Policy to learn more. By continuing to use the site, you agree to this use of cookies and data.
  • In Österreich
  • Länderverzeichnis
  • Für 7 Tage
  • Wassertemperatur
  • Satellitenkarten
  • Wetterkarte
  • News
  • Widgets
  • user-avatar
    Anmelden

    Stündliche Wetter Chyzhivka

    Heute, 11 Dezember, Dienstag

    Zeit Temperatur Niederschläge Wind Luftdruck Luftfeuchtigkeit
    00:00 -2°C° 0 mm 3 m/S 730 mmHg 92%
    01:00 -2°C° 0 mm 3 m/S 730 mmHg 92%
    02:00 -2°C° 0 mm 3 m/S 730 mmHg 93%
    03:00 -2°C° 0 mm 3 m/S 731 mmHg 93%
    04:00 -2°C° 0 mm 3 m/S 731 mmHg 93%
    05:00 -2°C° 0 mm 3 m/S 731 mmHg 94%
    06:00 -2°C° 0 mm 3 m/S 731 mmHg 94%
    07:00 -2°C° 0 mm 3 m/S 732 mmHg 94%
    08:00 -2°C° 0 mm 3 m/S 732 mmHg 94%
    09:00 -1°C° 0 mm 3 m/S 732 mmHg 93%
    10:00 -1°C° 0 mm 3 m/S 733 mmHg 92%
    11:00 -1°C° 0 mm 3 m/S 733 mmHg 91%
    12:00 0°C° 0 mm 3 m/S 733 mmHg 90%
    13:00 0°C° 0 mm 3 m/S 733 mmHg 89%
    14:00 0°C° 0 mm 3 m/S 733 mmHg 88%
    15:00 +1°C° 0 mm 2 m/S 733 mmHg 88%
    16:00 -1°C° 0 mm 2 m/S 734 mmHg 89%
    17:00 +1°C° 0 mm 1 m/S 734 mmHg 89%
    18:00 +1°C° 0 mm 1 m/S 734 mmHg 88%
    19:00 +1°C° 0 mm 1 m/S 734 mmHg 87%
    20:00 +1°C° 0 mm 1 m/S 734 mmHg 87%
    21:00 +1°C° 0 mm 1 m/S 735 mmHg 87%
    22:00 0°C° 0 mm 1 m/S 735 mmHg 86%
    23:00 0°C° 0 mm 1 m/S 735 mmHg 86%

    Morgen, 12 Dezember, Mittwoch

    Zeit Temperatur Niederschläge Wind Luftdruck Luftfeuchtigkeit
    00:00 0°C° 0 mm 1 m/S 735 mmHg 86%
    01:00 0°C° 0 mm 1 m/S 735 mmHg 86%
    02:00 0°C° 0 mm 1 m/S 735 mmHg 86%
    03:00 -2°C° 0 mm 2 m/S 735 mmHg 86%
    04:00 -3°C° 0 mm 2 m/S 735 mmHg 87%
    05:00 -3°C° 0 mm 2 m/S 735 mmHg 87%
    06:00 -3°C° 0 mm 2 m/S 735 mmHg 87%
    07:00 -3°C° 0 mm 2 m/S 735 mmHg 87%
    08:00 -4°C° 0 mm 3 m/S 735 mmHg 87%
    09:00 -4°C° 0 mm 3 m/S 735 mmHg 85%
    10:00 -3°C° 0 mm 4 m/S 735 mmHg 83%
    11:00 -3°C° 0 mm 4 m/S 735 mmHg 81%
    12:00 -2°C° 0.1 mm 5 m/S 735 mmHg 82%
    13:00 -2°C° 0.1 mm 5 m/S 735 mmHg 83%
    14:00 -2°C° 0.1 mm 5 m/S 734 mmHg 84%
    15:00 -2°C° 0.3 mm 5 m/S 734 mmHg 86%
    16:00 -3°C° 0.3 mm 6 m/S 734 mmHg 88%
    17:00 -4°C° 0.3 mm 6 m/S 734 mmHg 91%
    18:00 -4°C° 0.5 mm 6 m/S 734 mmHg 91%
    19:00 -4°C° 0.5 mm 6 m/S 734 mmHg 92%
    20:00 -4°C° 0.5 mm 6 m/S 734 mmHg 92%
    21:00 -4°C° 0.4 mm 6 m/S 734 mmHg 92%
    22:00 -4°C° 0.4 mm 6 m/S 733 mmHg 92%
    23:00 -4°C° 0.4 mm 5 m/S 733 mmHg 93%

    übermorgen, 13 Dezember, Donnerstag

    Zeit Temperatur Niederschläge Wind Luftdruck Luftfeuchtigkeit
    00:00 -4°C° 0.3 mm 5 m/S 733 mmHg 93%
    01:00 -4°C° 0.3 mm 5 m/S 733 mmHg 93%
    02:00 -4°C° 0.3 mm 5 m/S 733 mmHg 94%
    03:00 -4°C° 0.5 mm 5 m/S 733 mmHg 94%
    04:00 -4°C° 0.5 mm 5 m/S 733 mmHg 94%
    05:00 -4°C° 0.5 mm 5 m/S 733 mmHg 95%
    06:00 -3°C° 0.5 mm 4 m/S 733 mmHg 95%
    07:00 -3°C° 0.5 mm 4 m/S 733 mmHg 95%
    08:00 -3°C° 0.5 mm 4 m/S 733 mmHg 95%
    09:00 -3°C° 0.4 mm 4 m/S 733 mmHg 95%
    10:00 -2°C° 0.4 mm 4 m/S 733 mmHg 95%
    11:00 -2°C° 0.4 mm 4 m/S 733 mmHg 95%
    12:00 -2°C° 0.3 mm 4 m/S 733 mmHg 95%
    13:00 -2°C° 0.3 mm 4 m/S 733 mmHg 95%
    14:00 -2°C° 0.3 mm 4 m/S 733 mmHg 96%
    15:00 -2°C° 0.2 mm 4 m/S 734 mmHg 96%
    16:00 -2°C° 0.2 mm 4 m/S 734 mmHg 95%
    17:00 -2°C° 0.2 mm 4 m/S 734 mmHg 95%
    18:00 -1°C° 0.1 mm 3 m/S 734 mmHg 95%
    19:00 -1°C° 0.1 mm 3 m/S 735 mmHg 95%
    20:00 -1°C° 0.1 mm 3 m/S 735 mmHg 96%
    21:00 -1°C° 0.1 mm 3 m/S 735 mmHg 96%
    22:00 -1°C° 0.1 mm 3 m/S 735 mmHg 96%
    23:00 -1°C° 0.1 mm 3 m/S 735 mmHg 96%

    14 Dezember, Freitag

    Zeit Temperatur Niederschläge Wind Luftdruck Luftfeuchtigkeit
    00:00 -2°C° 0.1 mm 3 m/S 736 mmHg 96%
    01:00 -2°C° 0.1 mm 3 m/S 736 mmHg 96%
    02:00 -2°C° 0.1 mm 2 m/S 736 mmHg 96%
    03:00 -4°C° 0.1 mm 3 m/S 736 mmHg 96%
    04:00 -4°C° 0.1 mm 3 m/S 736 mmHg 96%
    05:00 -5°C° 0.1 mm 3 m/S 736 mmHg 96%
    06:00 -5°C° 0.1 mm 3 m/S 737 mmHg 96%
    07:00 -5°C° 0.1 mm 3 m/S 737 mmHg 96%
    08:00 -6°C° 0.1 mm 3 m/S 737 mmHg 96%
    09:00 -5°C° 0.1 mm 3 m/S 738 mmHg 96%
    10:00 -4°C° 0.1 mm 3 m/S 738 mmHg 95%
    11:00 -4°C° 0.1 mm 4 m/S 738 mmHg 95%
    12:00 -4°C° 0.1 mm 4 m/S 739 mmHg 94%
    13:00 -3°C° 0.1 mm 4 m/S 739 mmHg 94%
    14:00 -3°C° 0.1 mm 4 m/S 739 mmHg 94%
    15:00 -3°C° 0.1 mm 4 m/S 739 mmHg 94%
    16:00 -2°C° 0.1 mm 3 m/S 740 mmHg 94%
    17:00 -2°C° 0.1 mm 3 m/S 740 mmHg 95%
    18:00 -2°C° 0 mm 3 m/S 741 mmHg 95%
    19:00 -2°C° 0 mm 3 m/S 741 mmHg 96%
    20:00 -3°C° 0 mm 2 m/S 741 mmHg 96%
    21:00 -3°C° 0 mm 2 m/S 742 mmHg 97%
    22:00 -3°C° 0 mm 2 m/S 742 mmHg 97%
    23:00 -3°C° 0 mm 2 m/S 742 mmHg 97%

    15 Dezember, Samstag

    Zeit Temperatur Niederschläge Wind Luftdruck Luftfeuchtigkeit
    00:00 -3°C° 0 mm 2 m/S 743 mmHg 97%
    01:00 -3°C° 0 mm 2 m/S 743 mmHg 97%
    02:00 -1°C° 0 mm 1 m/S 743 mmHg 97%
    03:00 -1°C° 0 mm 1 m/S 743 mmHg 97%
    04:00 -1°C° 0 mm 1 m/S 743 mmHg 97%
    05:00 -1°C° 0 mm 1 m/S 744 mmHg 97%
    06:00 -2°C° 0 mm 1 m/S 744 mmHg 97%
    07:00 -2°C° 0 mm 1 m/S 744 mmHg 96%
    08:00 -2°C° 0 mm 1 m/S 744 mmHg 96%
    09:00 -1°C° 0 mm 1 m/S 745 mmHg 94%
    10:00 -1°C° 0 mm 1 m/S 745 mmHg 93%
    11:00 0°C° 0 mm 1 m/S 745 mmHg 92%
    12:00 0°C° 0 mm 1 m/S 745 mmHg 91%
    13:00 0°C° 0 mm 1 m/S 745 mmHg 91%
    14:00 0°C° 0 mm 1 m/S 745 mmHg 91%
    15:00 0°C° 0 mm 1 m/S 745 mmHg 92%
    16:00 -1°C° 0 mm 1 m/S 746 mmHg 93%
    17:00 -1°C° 0 mm 1 m/S 746 mmHg 94%
    18:00 -1°C° 0 mm 1 m/S 746 mmHg 94%
    19:00 -1°C° 0 mm 1 m/S 746 mmHg 95%
    20:00 -1°C° 0 mm 1 m/S 746 mmHg 95%
    21:00 -2°C° 0.1 mm 1 m/S 746 mmHg 95%
    22:00 -2°C° 0.1 mm 1 m/S 746 mmHg 95%
    23:00 -2°C° 0.1 mm 1 m/S 746 mmHg 95%

    16 Dezember, Sonntag

    Zeit Temperatur Niederschläge Wind Luftdruck Luftfeuchtigkeit
    00:00 -2°C° 0 mm 1 m/S 746 mmHg 95%
    01:00 -3°C° 0 mm 1 m/S 746 mmHg 95%
    02:00 -3°C° 0 mm 1 m/S 746 mmHg 95%
    03:00 -3°C° 0 mm 1 m/S 746 mmHg 95%
    04:00 -3°C° 0 mm 1 m/S 746 mmHg 96%
    05:00 -3°C° 0 mm 1 m/S 746 mmHg 96%
    06:00 -3°C° 0 mm 1 m/S 746 mmHg 96%
    07:00 -3°C° 0 mm 1 m/S 746 mmHg 95%
    08:00 -3°C° 0 mm 1 m/S 746 mmHg 95%
    09:00 -3°C° 0 mm 1 m/S 746 mmHg 95%
    10:00 -2°C° 0 mm 1 m/S 746 mmHg 94%
    11:00 -2°C° 0 mm 1 m/S 747 mmHg 93%
    12:00 -2°C° 0 mm 1 m/S 746 mmHg 93%
    13:00 -2°C° 0 mm 1 m/S 746 mmHg 92%
    14:00 -2°C° 0 mm 1 m/S 746 mmHg 92%
    15:00 -2°C° 0 mm 1 m/S 746 mmHg 92%
    16:00 -3°C° 0 mm 1 m/S 746 mmHg 93%
    17:00 -3°C° 0 mm 1 m/S 746 mmHg 93%
    18:00 -4°C° 0 mm 1 m/S 746 mmHg 93%
    19:00 -4°C° 0 mm 1 m/S 746 mmHg 93%
    20:00 -4°C° 0 mm 1 m/S 746 mmHg 93%
    21:00 -6°C° 0 mm 1 m/S 746 mmHg 93%
    22:00 -6°C° 0 mm 1 m/S 746 mmHg 93%
    23:00 -7°C° 0 mm 1 m/S 745 mmHg 93%
    Mehr zeigen